KE4OGG Weather Reports


Display with metric or nautical units.
time (UTC)temp
F
wind
direction
speed
MPH
gust
MPH
rain 1hr
in
rain 24hr
in
rain mn
in
humidity
%
barometer
mb
20260510201024 83 152 0.0 6.0 0.00 0.00 0.00 26 1016.2
20260510200524 83 117 2.0 6.0 0.00 0.00 0.00 26 1016.2
20260510200037 83 161 1.0 6.0 0.00 0.00 0.00 27 1016.4
20260510195526 82 264 1.0 6.0 0.00 0.00 0.00 27 1016.4
20260510195021 82 143 4.0 6.0 0.00 0.00 0.00 28 1016.5
20260510194539 83 93 2.0 5.0 0.00 0.00 0.00 26 1016.5
20260510194023 84 0 0.0 3.0 0.00 0.00 0.00 28 1016.5
20260510193523 85 288 1.0 3.0 0.00 0.00 0.00 24 1016.6
20260510193036 85 128 1.0 7.0 0.00 0.00 0.00 27 1016.6
20260510192524 84 219 0.0 7.0 0.00 0.00 0.00 26 1016.7
20260510192023 84 293 0.0 6.0 0.00 0.00 0.00 26 1016.6
20260510191541 83 0 0.0 6.0 0.00 0.00 0.00 26 1016.7
20260510191024 82 91 1.0 6.0 0.00 0.00 0.00 25 1016.7
20260510190523 81 129 3.0 6.0 0.00 0.00 0.00 26 1016.8
20260510190047 83 112 3.0 6.0 0.00 0.00 0.00 24 1016.8
20260510185525 83 224 1.0 7.0 0.00 0.00 0.00 27 1016.9
20260510185024 83 101 1.0 7.0 0.00 0.00 0.00 29 1016.8
20260510184559 83 90 0.0 3.0 0.00 0.00 0.00 26 1016.9
20260510184026 82 237 1.0 6.0 0.00 0.00 0.00 29 1016.9
20260510183523 81 128 2.0 9.0 0.00 0.00 0.00 27 1016.9
20260510183041 82 105 3.0 9.0 0.00 0.00 0.00 30 1016.9
20260510182523 82 314 0.0 7.0 0.00 0.00 0.00 29 1016.8
20260510182027 81 281 0.0 7.0 0.00 0.00 0.00 30 1017.0
20260510181552 82 91 1.0 8.0 0.00 0.00 0.00 31 1017.0
20260510181023 80 220 3.0 8.0 0.00 0.00 0.00 30 1017.1
20260510180524 82 120 3.0 8.0 0.00 0.00 0.00 31 1017.1
20260510180056 82 297 1.0 6.0 0.00 0.00 0.00 29 1017.0
20260510175523 81 115 2.0 6.0 0.00 0.00 0.00 30 1017.1
20260510175024 80 112 1.0 6.0 0.00 0.00 0.00 30 1017.1
20260510174539 80 96 3.0 6.0 0.00 0.00 0.00 30 1017.1
20260510174025 80 113 0.0 8.0 0.00 0.00 0.00 30 1017.2
20260510173523 79 113 2.0 10.0 0.00 0.00 0.00 30 1017.3
20260510173038 79 101 5.0 10.0 0.00 0.00 0.00 29 1017.3
20260510172523 79 109 4.0 10.0 0.00 0.00 0.00 28 1017.3
20260510172028 80 332 1.0 6.0 0.00 0.00 0.00 29 1017.4
20260510171555 80 136 2.0 8.0 0.00 0.00 0.00 30 1017.4
20260510171023 79 94 2.0 8.0 0.00 0.00 0.00 34 1017.5
20260510170523 79 117 2.0 7.0 0.00 0.00 0.00 34 1017.5
20260510170037 80 86 3.0 7.0 0.00 0.00 0.00 32 1017.6
20260510165524 79 302 0.0 7.0 0.00 0.00 0.00 35 1017.5
20260510165029 79 281 1.0 7.0 0.00 0.00 0.00 31 1017.6
20260510164540 79 85 3.0 6.0 0.00 0.00 0.00 33 1017.6
20260510164024 79 293 0.0 6.0 0.00 0.00 0.00 33 1017.6
20260510163524 78 293 1.0 6.0 0.00 0.00 0.00 31 1017.5
20260510163040 79 94 2.0 8.0 0.00 0.00 0.00 31 1017.6
20260510162526 78 0 1.0 8.0 0.00 0.00 0.00 31 1017.8
20260510162023 79 92 2.0 6.0 0.00 0.00 0.00 34 1017.7
20260510161537 79 108 1.0 6.0 0.00 0.00 0.00 37 1017.6
20260510161025 78 181 2.0 6.0 0.00 0.00 0.00 35 1017.6
20260510160525 78 118 1.0 11.0 0.00 0.00 0.00 37 1017.6
20260510160046 77 89 4.0 11.0 0.00 0.00 0.00 38 1017.7
20260510155523 77 86 3.0 9.0 0.00 0.00 0.00 34 1017.7
20260510155026 78 91 2.0 6.0 0.00 0.00 0.00 36 1017.7
20260510154555 79 302 1.0 2.0 0.00 0.00 0.00 33 1017.7
20260510154023 78 0 0.0 3.0 0.00 0.00 0.00 36 1017.8
20260510153523 77 248 1.0 10.0 0.00 0.00 0.00 39 1017.8
20260510153046 76 103 1.0 10.0 0.00 0.00 0.00 40 1017.8
20260510152524 76 102 3.0 10.0 0.00 0.00 0.00 38 1017.9
20260510152023 76 111 4.0 7.0 0.00 0.00 0.00 39 1017.7
20260510151539 76 96 2.0 5.0 0.00 0.00 0.00 41 1017.8
20260510151024 77 119 2.0 5.0 0.00 0.00 0.00 40 1017.7
20260510150530 76 316 1.0 3.0 0.00 0.00 0.00 45 1017.7
20260510150038 76 307 0.0 4.0 0.00 0.00 0.00 41 1017.9
20260510145523 75 307 2.0 4.0 0.00 0.00 0.00 45 1017.7
20260510145023 74 294 2.0 3.0 0.00 0.00 0.00 44 1017.8
20260510144551 75 297 0.0 2.0 0.00 0.00 0.00 43 1017.7
20260510144026 75 124 0.0 2.0 0.00 0.00 0.00 46 1017.6
20260510143528 74 321 0.0 2.0 0.00 0.00 0.00 46 1017.7
20260510143037 73 86 1.0 2.0 0.00 0.00 0.00 49 1017.6
20260510142527 73 297 0.0 4.0 0.00 0.00 0.00 46 1017.5
20260510142024 72 301 2.0 4.0 0.00 0.00 0.00 46 1017.5
20260510141541 73 300 0.0 3.0 0.00 0.00 0.00 47 1017.4
20260510141022 73 291 1.0 3.0 0.00 0.00 0.00 47 1017.4
20260510140523 73 296 0.0 3.0 0.00 0.00 0.00 46 1017.3
20260510140041 72 307 0.0 4.0 0.00 0.00 0.00 48 1017.4
20260510135524 71 311 1.0 4.0 0.00 0.00 0.00 46 1017.3
20260510135024 72 322 2.0 4.0 0.00 0.00 0.00 45 1017.3
20260510134548 73 296 0.0 2.0 0.00 0.00 0.00 46 1017.3
20260510134026 72 264 0.0 2.0 0.00 0.00 0.00 55 1017.3
20260510133523 71 0 0.0 2.0 0.00 0.00 0.00 62 1017.3
20260510133038 70 41 0.0 3.0 0.00 0.00 0.00 64 1017.2
20260510132523 70 290 0.0 3.0 0.00 0.00 0.00 64 1017.2
20260510132024 69 300 0.0 2.0 0.00 0.00 0.00 66 1017.2
20260510131537 69 0 0.0 2.0 0.00 0.00 0.00 67 1017.3
20260510131023 68 285 0.0 2.0 0.00 0.00 0.00 67 1017.2
20260510130525 68 300 0.0 2.0 0.00 0.00 0.00 67 1017.3
20260510130037 69 304 0.0 2.0 0.00 0.00 0.00 67 1017.2
20260510125523 68 0 0.0 1.0 0.00 0.00 0.00 68 1017.2
20260510125028 68 0 0.0 1.0 0.00 0.00 0.00 71 1017.1
20260510124543 66 0 0.0 1.0 0.00 0.00 0.00 73 1017.1
20260510124025 65 0 0.0 1.0 0.00 0.00 0.00 75 1017.1
20260510123523 64 311 0.0 1.0 0.00 0.00 0.00 77 1017.1
20260510123039 62 19 0.0 2.0 0.00 0.00 0.00 78 1016.9
20260510122523 61 290 0.0 2.0 0.00 0.00 0.00 80 1016.8
20260510122025 60 0 0.0 2.0 0.00 0.00 0.00 81 1016.8
20260510121538 59 0 0.0 0.0 0.00 0.00 0.00 83 1016.7
20260510121024 59 0 0.0 0.0 0.00 0.00 0.00 83 1016.7
20260510120524 58 0 0.0 0.0 0.00 0.00 0.00 84 1016.7
20260510120038 58 0 0.0 0.0 0.00 0.00 0.00 84 1016.8
20260510115524 57 0 0.0 0.0 0.00 0.00 0.00 85 1016.7
20260510115027 57 321 0.0 0.0 0.00 0.00 0.00 85 1016.6
20260510114538 56 0 0.0 0.0 0.00 0.00 0.00 85 1016.4
20260510114024 56 0 0.0 0.0 0.00 0.00 0.00 85 1016.3
20260510113524 55 0 0.0 1.0 0.00 0.00 0.00 84 1016.2
20260510113041 55 0 0.0 1.0 0.00 0.00 0.00 83 1016.2
20260510112524 55 0 0.0 0.0 0.00 0.00 0.00 83 1016.1
20260510112024 55 0 0.0 0.0 0.00 0.00 0.00 82 1016.1
20260510111545 55 0 0.0 0.0 0.00 0.00 0.00 81 1016.0
20260510111028 55 0 0.0 0.0 0.00 0.00 0.00 80 1016.0
20260510110523 55 0 0.0 0.0 0.00 0.00 0.00 79 1015.8
20260510110038 55 0 0.0 0.0 0.00 0.00 0.00 79 1015.9
20260510105524 56 0 0.0 0.0 0.00 0.00 0.00 79 1015.7
20260510105027 56 0 0.0 0.0 0.00 0.00 0.00 79 1015.6
20260510104552 56 0 0.0 0.0 0.00 0.00 0.00 79 1015.6
20260510104023 56 0 0.0 0.0 0.00 0.00 0.00 78 1015.5
20260510103524 56 0 0.0 0.0 0.00 0.00 0.00 73 1015.5
20260510103039 56 0 0.0 0.0 0.00 0.00 0.00 73 1015.3
20260510102523 57 0 0.0 1.0 0.00 0.00 0.00 72 1015.3
20260510102026 57 0 0.0 1.0 0.00 0.00 0.00 73 1015.4
20260510101541 57 321 0.0 1.0 0.00 0.00 0.00 73 1015.5
20260510101025 57 321 0.0 1.0 0.00 0.00 0.00 73 1015.4
20260510100524 57 0 0.0 0.0 0.00 0.00 0.00 73 1015.2
20260510100050 57 0 0.0 0.0 0.00 0.00 0.00 71 1015.1
20260510095526 57 0 0.0 0.0 0.00 0.00 0.00 70 1015.1
20260510095023 57 0 0.0 0.0 0.00 0.00 0.00 69 1015.0
20260510094537 58 0 0.0 0.0 0.00 0.00 0.00 69 1014.9
20260510094023 58 0 0.0 1.0 0.00 0.00 0.00 69 1014.9
20260510093523 58 0 0.0 1.0 0.00 0.00 0.00 69 1014.8
20260510093046 58 0 0.0 1.0 0.00 0.00 0.00 69 1014.8
20260510092527 58 0 0.0 0.0 0.00 0.00 0.00 69 1014.7
20260510092023 59 0 0.0 1.0 0.00 0.00 0.00 69 1014.8
20260510091539 59 0 0.0 1.0 0.00 0.00 0.00 69 1014.7
20260510091023 59 0 0.0 1.0 0.00 0.00 0.00 69 1014.6
20260510090523 59 326 0.0 1.0 0.00 0.00 0.00 69 1014.5
20260510090036 59 308 0.0 1.0 0.00 0.00 0.00 69 1014.5
20260510085525 59 0 0.0 1.0 0.00 0.00 0.00 69 1014.5
20260510085023 59 28 0.0 1.0 0.00 0.00 0.00 70 1014.4
20260510084553 59 294 0.0 1.0 0.00 0.00 0.00 70 1014.4
20260510084023 59 294 0.0 1.0 0.00 0.00 0.00 69 1014.4
20260510083524 60 0 0.0 2.0 0.00 0.00 0.00 68 1014.3
20260510083047 60 0 0.0 2.0 0.00 0.00 0.00 69 1014.3
20260510082522 60 297 1.0 2.0 0.00 0.00 0.00 70 1014.3
20260510082024 60 330 0.0 1.0 0.00 0.00 0.00 72 1014.1
20260510081541 60 11 0.0 1.0 0.00 0.00 0.00 72 1014.1
20260510081023 60 11 0.0 1.0 0.00 0.00 0.00 73 1014.1
20260510080524 60 0 0.0 1.0 0.00 0.00 0.00 74 1014.1
20260510080037 59 0 0.0 1.0 0.00 0.00 0.00 75 1014.1
20260510075526 59 0 0.0 1.0 0.00 0.00 0.00 75 1014.0
20260510075023 59 0 0.0 0.0 0.00 0.00 0.00 75 1014.0
20260510074537 59 0 0.0 0.0 0.00 0.00 0.00 75 1014.0
20260510074023 59 0 0.0 0.0 0.00 0.00 0.00 75 1014.0
20260510073524 59 0 0.0 0.0 0.00 0.00 0.00 75 1014.0
20260510073046 59 0 0.0 0.0 0.00 0.00 0.00 75 1013.8
20260510072523 60 0 0.0 0.0 0.00 0.00 0.00 75 1013.8
20260510072023 60 0 0.0 0.0 0.00 0.00 0.00 74 1013.8
20260510071539 60 0 0.0 0.0 0.00 0.00 0.00 74 1013.8
20260510071022 60 0 0.0 0.0 0.00 0.00 0.00 74 1013.9
20260510070524 60 0 0.0 1.0 0.00 0.00 0.00 74 1013.8
20260510070039 60 0 0.0 1.0 0.00 0.00 0.00 75 1013.9
20260510065524 60 0 0.0 1.0 0.00 0.00 0.00 77 1013.9
20260510065027 60 0 0.0 1.0 0.00 0.00 0.00 78 1013.8
20260510064538 60 0 0.0 1.0 0.00 0.00 0.00 78 1013.9
20260510064023 60 0 0.0 0.0 0.00 0.00 0.00 78 1013.9
20260510063523 60 0 0.0 1.0 0.00 0.00 0.00 77 1014.1
20260510063038 60 0 0.0 2.0 0.00 0.00 0.00 78 1014.1
20260510062523 60 0 0.0 2.0 0.00 0.00 0.00 79 1014.1
20260510062023 60 0 0.0 1.0 0.00 0.00 0.00 80 1014.1
20260510061552 60 293 0.0 1.0 0.00 0.00 0.00 81 1014.1
20260510061023 60 293 0.0 1.0 0.00 0.00 0.00 81 1014.2
20260510060523 60 0 0.0 0.0 0.00 0.00 0.00 78 1014.2
20260510060045 60 0 0.0 0.0 0.00 0.00 0.00 77 1014.3
20260510055523 60 0 0.0 0.0 0.00 0.00 0.00 77 1014.2
20260510055024 60 0 0.0 0.0 0.00 0.00 0.00 77 1014.3
20260510054539 61 0 0.0 0.0 0.00 0.00 0.00 77 1014.2
20260510054024 61 0 0.0 0.0 0.00 0.00 0.00 77 1014.3
20260510053523 61 0 0.0 1.0 0.00 0.00 0.00 77 1014.4
20260510053041 61 0 0.0 1.0 0.00 0.00 0.00 76 1014.2
20260510052523 61 0 0.0 1.0 0.00 0.00 0.00 76 1014.3
20260510052026 61 293 0.0 1.0 0.00 0.00 0.00 76 1014.4
20260510051542 61 0 0.0 1.0 0.00 0.00 0.00 74 1014.5
20260510051023 61 0 0.0 1.0 0.00 0.00 0.00 74 1014.4
20260510050523 61 0 0.0 1.0 0.00 0.00 0.00 74 1014.4
20260510050039 61 0 0.0 2.0 0.00 0.00 0.00 73 1014.4
20260510045523 61 0 0.0 2.0 0.00 0.00 0.00 74 1014.4
20260510045023 61 0 0.0 1.0 0.00 0.00 0.00 74 1014.4
20260510044536 61 288 0.0 1.0 0.00 0.00 0.00 74 1014.3
20260510044023 61 0 0.0 1.0 0.00 0.00 0.00 73 1014.4
20260510043523 61 0 0.0 1.0 0.00 0.00 0.00 72 1014.2
20260510043042 61 0 0.0 1.0 0.00 0.00 0.00 72 1014.3
20260510042525 61 0 0.0 0.0 0.00 0.00 0.00 71 1014.1
20260510042022 61 0 0.0 0.0 0.00 0.00 0.00 70 1014.2
20260510041540 61 0 0.0 1.0 0.00 0.00 0.00 70 1014.2
20260510041027 62 0 0.0 1.0 0.00 0.00 0.00 70 1014.1
20260510040524 62 0 0.0 1.0 0.00 0.00 0.00 70 1014.2
20260510040039 62 0 0.0 1.0 0.00 0.00 0.00 69 1014.2
20260510035522 62 0 0.0 1.0 0.00 0.00 0.00 69 1014.2
20260510035023 62 0 0.0 1.0 0.00 0.00 0.00 69 1014.2
20260510034538 62 0 0.0 1.0 0.00 0.00 0.00 68 1014.1
20260510034024 62 0 0.0 1.0 0.00 0.00 0.00 68 1014.2
20260510033526 62 0 0.0 0.0 0.00 0.00 0.00 68 1014.2
20260510033038 62 0 0.0 0.0 0.00 0.00 0.00 68 1014.2
20260510032523 62 0 0.0 0.0 0.00 0.00 0.00 67 1014.1
20260510032026 62 0 0.0 0.0 0.00 0.00 0.00 67 1014.2
20260510031549 63 0 0.0 0.0 0.00 0.00 0.00 67 1014.2
20260510031022 63 0 0.0 0.0 0.00 0.00 0.00 66 1014.0
20260510030522 63 0 0.0 0.0 0.00 0.00 0.00 66 1014.1
20260510030039 63 0 0.0 0.0 0.00 0.00 0.00 66 1014.1
20260510025523 63 0 0.0 0.0 0.00 0.00 0.00 65 1014.0
20260510025024 63 0 0.0 0.0 0.00 0.00 0.00 65 1014.0
20260510024536 63 0 0.0 1.0 0.00 0.00 0.00 65 1014.0
20260510024023 63 0 0.0 1.0 0.00 0.00 0.00 65 1014.0
20260510023523 64 0 0.0 0.0 0.00 0.00 0.00 64 1014.0
20260510023043 64 0 0.0 0.0 0.00 0.00 0.00 64 1013.9
20260510022524 64 0 0.0 0.0 0.00 0.00 0.00 64 1013.9
20260510022023 64 0 0.0 2.0 0.00 0.00 0.00 63 1013.9
20260510021537 64 0 0.0 2.0 0.00 0.00 0.00 63 1013.8
20260510021023 64 311 0.0 1.0 0.00 0.00 0.00 63 1013.7
20260510020523 64 0 0.0 1.0 0.00 0.00 0.00 63 1013.7
20260510020039 65 0 0.0 1.0 0.00 0.00 0.00 63 1013.6
20260510015524 65 91 0.0 1.0 0.00 0.00 0.00 63 1013.6
20260510015024 65 0 0.0 1.0 0.00 0.00 0.00 63 1013.6
20260510014538 65 0 0.0 0.0 0.00 0.00 0.00 62 1013.5
20260510014024 65 0 0.0 0.0 0.00 0.00 0.00 62 1013.4
20260510013525 65 0 0.0 0.0 0.00 0.00 0.00 62 1013.3
20260510013045 65 0 0.0 1.0 0.00 0.00 0.00 62 1013.3
20260510012523 66 0 0.0 1.0 0.00 0.00 0.00 62 1013.2
20260510012024 66 0 0.0 1.0 0.00 0.00 0.00 62 1013.2
20260510011537 66 225 0.0 1.0 0.00 0.00 0.00 62 1013.1
20260510011024 66 0 0.0 1.0 0.00 0.00 0.00 61 1013.0
20260510010523 66 0 0.0 1.0 0.00 0.00 0.00 61 1013.0
20260510010037 66 0 0.0 2.0 0.00 0.00 0.00 61 1013.0
20260510005523 66 0 0.0 2.0 0.00 0.00 0.00 61 1013.0
20260510005023 66 264 0.0 1.0 0.00 0.00 0.00 61 1012.9
20260510004535 67 0 0.0 1.0 0.00 0.00 0.00 60 1012.9
20260510004023 67 0 0.0 1.0 0.00 0.00 0.00 60 1012.9
20260510003523 67 0 0.0 1.0 0.00 0.00 0.00 60 1012.9
20260510003039 67 0 0.0 1.0 0.00 0.00 0.00 60 1012.9
20260510002527 67 0 0.0 1.0 0.00 0.00 0.00 59 1013.0
20260510002023 68 221 0.0 1.0 0.00 0.00 0.00 59 1012.7
20260510001538 68 216 0.0 1.0 0.00 0.00 0.00 59 1012.8
20260510001024 68 248 0.0 1.0 0.00 0.00 0.00 58 1012.4
20260510000524 68 0 0.0 2.0 0.00 0.00 0.00 58 1012.4
20260510000038 69 249 0.0 2.0 0.00 0.00 0.00 58 1012.4
20260509235523 69 148 0.0 3.0 0.00 0.00 0.00 57 1012.1
20260509235023 69 0 0.0 4.0 0.00 0.00 0.00 57 1012.2
20260509234540 70 0 0.0 4.0 0.00 0.00 0.00 56 1012.3
20260509234022 70 188 0.0 5.0 0.00 0.00 0.00 56 1012.2
20260509233523 70 131 0.0 5.0 0.00 0.00 0.00 56 1012.2
20260509233036 70 138 1.0 4.0 0.00 0.00 0.00 56 1011.9
20260509232523 71 151 0.0 2.0 0.00 0.00 0.00 55 1012.0
20260509232023 71 191 0.0 4.0 0.00 0.00 0.00 55 1011.9
20260509231538 71 101 0.0 4.0 0.00 0.00 0.00 55 1011.8
20260509231023 71 84 0.0 4.0 0.00 0.00 0.00 54 1011.8
20260509230523 71 133 1.0 4.0 0.00 0.00 0.00 54 1011.7
20260509230041 71 252 0.0 3.0 0.00 0.00 0.00 54 1011.8
20260509225523 71 137 1.0 7.0 0.00 0.00 0.00 54 1011.7
20260509225023 72 85 2.0 7.0 0.00 0.00 0.00 54 1011.7
20260509224539 72 101 0.0 2.0 0.00 0.00 0.00 54 1011.7
20260509224023 72 136 0.0 3.0 0.00 0.00 0.00 53 1011.6
20260509223526 72 0 0.0 3.0 0.00 0.00 0.00 53 1011.6
20260509223039 72 0 0.0 3.0 0.00 0.00 0.00 52 1011.7
20260509222523 73 0 0.0 2.0 0.00 0.00 0.00 52 1011.8
20260509222023 73 287 0.0 6.0 0.00 0.00 0.00 52 1011.8
20260509221542 73 0 1.0 6.0 0.00 0.00 0.00 51 1011.8
20260509221023 73 288 0.0 4.0 0.00 0.00 0.00 51 1011.8
20260509220523 74 174 1.0 4.0 0.00 0.00 0.00 50 1011.5
20260509220038 74 157 1.0 4.0 0.00 0.00 0.00 51 1011.6
20260509215524 74 164 0.0 4.0 0.00 0.00 0.00 50 1011.7
20260509215023 74 240 0.0 4.0 0.00 0.00 0.00 50 1011.6
20260509214539 74 128 1.0 4.0 0.00 0.00 0.00 48 1011.5
20260509214026 75 154 1.0 3.0 0.00 0.00 0.00 49 1011.5
20260509213524 76 153 0.0 7.0 0.00 0.00 0.00 49 1011.5
20260509213038 75 0 0.0 7.0 0.00 0.00 0.00 49 1011.3
20260509212524 74 126 2.0 7.0 0.00 0.00 0.00 50 1011.3
20260509212027 74 103 0.0 3.0 0.00 0.00 0.00 49 1011.1
20260509211545 74 72 1.0 7.0 0.00 0.00 0.00 50 1011.2
20260509211025 74 121 1.0 7.0 0.00 0.00 0.00 51 1011.2
20260509210524 74 108 1.0 6.0 0.00 0.00 0.00 52 1011.1
20260509210040 74 139 2.0 6.0 0.00 0.00 0.00 50 1011.2
20260509205523 74 126 1.0 6.0 0.00 0.00 0.00 50 1011.3
20260509205023 74 136 1.0 6.0 0.00 0.00 0.00 50 1011.4
20260509204534 74 324 1.0 6.0 0.00 0.00 0.00 51 1011.1
20260509204023 74 195 1.0 10.0 0.00 0.00 0.00 51 1011.1
20260509203523 74 205 2.0 10.0 0.00 0.00 0.00 49 1011.3
20260509203040 75 81 2.0 12.0 0.00 0.00 0.00 48 1011.2
20260509202523 76 301 2.0 12.0 0.00 0.00 0.00 47 1011.3
20260509202024 76 155 2.0 5.0 0.00 0.00 0.00 46 1011.4
20260509201537 77 120 1.0 3.0 0.00 0.00 0.00 46 1011.3